AA9VI-10 Weather Reports


Display with metric or nautical units.
time (UTC)temp
F
wind
direction
speed
MPH
gust
MPH
rain 1hr
in
rain 24hr
in
rain mn
in
humidity
%
barometer
mb
20260904184017 85 135 2.0 5.0 0.00 0.00 0.00 67 1014.4
20260904183016 83 158 2.0 4.0 0.00 0.00 0.00 65 1014.6
20260904182017 82 158 3.0 6.0 0.00 0.00 0.00 68 1014.6
20260904181017 82 135 2.0 4.0 0.00 0.00 0.00 69 1014.6
20260904180017 81 158 3.0 6.0 0.00 0.00 0.00 70 1014.5
20260904175017 81 135 4.0 8.0 0.00 0.00 0.00 69 1014.5
20260904174017 81 135 4.0 8.0 0.00 0.00 0.00 70 1014.8
20260904173017 81 135 3.0 8.0 0.00 0.00 0.00 69 1015.2
20260904172017 81 90 2.0 3.0 0.00 0.00 0.00 72 1015.9
20260904171017 81 90 2.0 4.0 0.00 0.00 0.00 72 1016.4
20260904170017 80 90 1.0 4.0 0.00 0.00 0.00 74 1017.0
20260904165017 79 90 1.0 3.0 0.00 0.00 0.00 75 1017.1
20260904164017 79 45 1.0 3.0 0.00 0.00 0.00 76 1017.0
20260904163017 78 113 4.0 8.0 0.00 0.00 0.00 77 1016.6
20260904162017 78 90 3.0 9.0 0.00 0.00 0.00 78 1016.8
20260904161017 78 90 2.0 4.0 0.00 0.00 0.00 77 1016.9
20260904160017 78 45 2.0 4.0 0.00 0.00 0.00 79 1017.0
20260904155017 78 45 2.0 4.0 0.00 0.02 0.00 79 1016.8
20260904154017 78 45 2.0 6.0 0.00 0.11 0.00 78 1016.8
20260904153017 79 68 1.0 3.0 0.00 0.25 0.00 78 1016.7
20260904152017 79 45 2.0 3.0 0.00 0.25 0.00 78 1016.7
20260904151017 79 45 1.0 3.0 0.00 0.25 0.00 79 1016.7
20260904150017 78 90 1.0 3.0 0.00 0.25 0.00 81 1015.8
20260904145017 78 90 2.0 4.0 0.00 0.25 0.00 82 1015.8
20260904144017 77 45 1.0 3.0 0.00 0.25 0.00 82 1015.5
20260904143016 77 90 2.0 6.0 0.00 0.25 0.00 82 1015.4
20260904142017 77 90 1.0 4.0 0.00 0.25 0.00 83 1015.4
20260904141017 77 90 1.0 3.0 0.00 0.25 0.00 84 1015.5
20260904140017 76 0.0 2.0 0.00 0.25 0.00 84 1015.4
20260904135017 76 68 1.0 4.0 0.00 0.25 0.00 84 1015.4
20260904134017 76 68 1.0 3.0 0.00 0.25 0.00 84 1015.3
20260904133017 76 0.0 1.0 0.00 0.25 0.00 85 1015.3
20260904132016 76 68 1.0 3.0 0.00 0.25 0.00 85 1015.3
20260904131017 75 0.0 1.0 0.00 0.25 0.00 85 1014.8
20260904130016 75 45 1.0 3.0 0.00 0.25 0.00 84 1014.9
20260904125017 75 0.0 2.0 0.00 0.25 0.00 85 1014.6
20260904124016 75 68 1.0 2.0 0.00 0.25 0.00 85 1014.6
20260904123017 76 45 1.0 2.0 0.00 0.25 0.00 86 1014.5
20260904122017 76 45 1.0 2.0 0.00 0.25 0.00 87 1014.2
20260904121017 75 0.0 0.0 0.00 0.25 0.00 87 1013.9
20260904120017 75 0.0 1.0 0.00 0.25 0.00 87 1013.8
20260904115017 75 0.0 1.0 0.00 0.25 0.00 86 1013.8
20260904114017 75 0.0 0.0 0.00 0.25 0.00 85 1013.4
20260904113017 75 0.0 0.0 0.00 0.25 0.00 84 1013.0
20260904112017 76 0.0 0.0 0.00 0.25 0.00 84 1013.0
20260904111016 76 0.0 0.0 0.00 0.25 0.00 83 1012.9
20260904110017 77 0.0 0.0 0.00 0.25 0.00 83 1013.0
20260904105017 77 0.0 0.0 0.00 0.25 0.00 82 1012.9
20260904104016 77 0.0 0.0 0.00 0.25 0.00 82 1013.0
20260904103017 78 0.0 1.0 0.00 0.25 0.00 82 1012.8
20260904102017 78 0.0 0.0 0.00 0.25 0.00 82 1012.7
20260904101017 78 0.0 2.0 0.00 0.25 0.00 82 1012.6
20260904100017 78 0.0 2.0 0.00 0.25 0.00 83 1012.7
20260904095017 78 225 1.0 5.0 0.00 0.25 0.00 83 1012.6
20260904094017 78 225 2.0 4.0 0.00 0.25 0.00 84 1012.5
20260904093017 77 203 2.0 6.0 0.00 0.25 0.00 86 1012.6
20260904092017 77 225 2.0 5.0 0.00 0.25 0.00 87 1012.6
20260904091017 77 225 3.0 7.0 0.00 0.25 0.00 88 1012.5
20260904090017 76 225 4.0 6.0 0.00 0.25 0.00 88 1012.7
20260904085017 76 203 3.0 4.0 0.00 0.25 0.00 90 1013.0
20260904084016 75 0.0 0.0 0.00 0.25 0.00 89 1013.4
20260904083017 75 0.0 0.0 0.00 0.25 0.00 89 1013.5
20260904082017 75 0.0 0.0 0.00 0.25 0.00 89 1013.3
20260904081016 75 225 1.0 2.0 0.00 0.25 0.00 89 1013.3
20260904080017 75 0.0 0.0 0.00 0.25 0.00 89 1013.3
20260904075016 75 0.0 2.0 0.00 0.25 0.00 89 1013.1
20260904074016 74 0.0 0.0 0.00 0.25 0.00 89 1013.0
20260904073016 74 0.0 0.0 0.00 0.25 0.00 88 1012.7
20260904072016 74 0.0 1.0 0.00 0.25 0.00 88 1012.5
20260904071018 74 0.0 2.0 0.00 0.25 0.00 88 1012.5
20260904070017 74 0.0 2.0 0.00 0.25 0.00 88 1012.5
20260904065017 74 0.0 0.0 0.00 0.25 0.00 87 1012.7
20260904064016 74 0.0 2.0 0.00 0.25 0.00 88 1012.8
20260904063017 74 0.0 0.0 0.00 0.25 0.00 88 1013.0
20260904062017 74 0.0 0.0 0.00 0.25 0.00 88 1013.2
20260904061022 74 0.0 0.0 0.00 0.25 0.00 88 1013.5
20260904060016 74 0.0 0.0 0.00 0.25 0.00 88 1013.6
20260904055016 74 0.0 0.0 0.00 0.25 0.00 87 1013.8
20260904054017 74 0.0 0.0 0.00 0.25 0.00 87 1013.8
20260904053017 74 0.0 0.0 0.00 0.25 0.00 87 1013.8
20260904052017 74 0.0 0.0 0.00 0.25 0.00 86 1013.8
20260904051017 75 0.0 0.0 0.00 0.25 0.00 86 1013.7
20260904050016 75 0.0 0.0 0.00 0.25 0.25 85 1013.7
20260904045018 75 0.0 0.0 0.00 0.25 0.25 85 1013.7
20260904044017 75 0.0 0.0 0.00 0.25 0.25 84 1013.7
20260904043017 75 0.0 0.0 0.00 0.25 0.25 84 1013.7
20260904042017 75 0.0 0.0 0.00 0.25 0.25 84 1013.8
20260904041018 76 0.0 0.0 0.00 0.25 0.25 84 1013.8
20260904040017 76 0.0 0.0 0.00 0.25 0.25 83 1013.9
20260904035017 76 0.0 0.0 0.00 0.25 0.25 83 1014.0
20260904034018 76 0.0 0.0 0.00 0.25 0.25 83 1014.1
20260904033018 76 0.0 0.0 0.00 0.25 0.25 82 1014.1
20260904032017 77 0.0 0.0 0.00 0.25 0.25 82 1014.3
20260904031018 77 0.0 0.0 0.00 0.25 0.25 82 1014.4
20260904030017 77 0.0 0.0 0.00 0.25 0.25 81 1014.3
20260904025018 77 0.0 1.0 0.00 0.25 0.25 81 1014.3
20260904024018 77 0.0 0.0 0.00 0.25 0.25 80 1014.2
20260904023018 78 0.0 0.0 0.00 0.25 0.25 79 1014.2
20260904022017 78 0.0 0.0 0.00 0.25 0.25 79 1014.1
20260904021018 78 0.0 0.0 0.00 0.25 0.25 78 1014.0
20260904020018 79 0.0 0.0 0.00 0.25 0.25 77 1013.7
20260904015018 79 0.0 0.0 0.00 0.25 0.25 76 1013.7
20260904014018 79 0.0 0.0 0.00 0.25 0.25 76 1013.6
20260904013017 80 0.0 0.0 0.00 0.25 0.25 74 1013.7
20260904012018 80 0.0 0.0 0.00 0.25 0.25 73 1013.6
20260904011018 81 0.0 0.0 0.00 0.25 0.25 72 1013.4
20260904010018 82 0.0 0.0 0.00 0.25 0.25 70 1013.1
20260904005017 82 0.0 0.0 0.00 0.25 0.25 69 1012.9
20260904004017 83 0.0 2.0 0.00 0.25 0.25 68 1012.7
20260904003017 83 0.0 1.0 0.00 0.25 0.25 66 1012.5
20260904002017 84 0.0 1.0 0.00 0.25 0.25 65 1012.5
20260904001017 84 0.0 2.0 0.00 0.25 0.25 64 1012.5
20260904000017 85 0.0 1.0 0.00 0.25 0.25 63 1012.5
20260903235017 85 158 1.0 2.0 0.00 0.25 0.25 62 1012.5
20260903234017 85 135 1.0 2.0 0.00 0.25 0.25 61 1012.5
20260903233017 86 135 1.0 2.0 0.00 0.25 0.25 61 1012.5
20260903232017 86 135 1.0 3.0 0.00 0.25 0.25 60 1012.6
20260903231018 87 158 1.0 3.0 0.00 0.25 0.25 60 1012.6
20260903230018 87 113 1.0 3.0 0.00 0.25 0.25 59 1012.6
20260903225020 87 0.0 2.0 0.00 0.25 0.25 59 1012.7
20260903224018 88 0.0 1.0 0.00 0.25 0.25 59 1012.8
20260903223017 88 158 1.0 2.0 0.00 0.25 0.25 60 1013.0
20260903222018 89 0.0 2.0 0.00 0.25 0.25 59 1013.1
20260903221022 89 0.0 1.0 0.00 0.25 0.25 59 1013.2
20260903220018 90 158 1.0 2.0 0.00 0.25 0.25 57 1013.2
20260903215017 90 0.0 2.0 0.00 0.25 0.25 59 1013.2
20260903214017 90 0.0 1.0 0.00 0.25 0.25 59 1013.2
20260903213017 90 0.0 2.0 0.00 0.25 0.25 59 1013.2
20260903212017 90 0.0 1.0 0.00 0.25 0.25 59 1013.2
20260903211017 90 0.0 0.0 0.00 0.25 0.25 58 1013.2
20260903210017 90 0.0 1.0 0.00 0.25 0.25 58 1013.4
20260903205017 90 225 1.0 3.0 0.00 0.25 0.25 58 1013.5
20260903204017 90 0.0 1.0 0.00 0.25 0.25 58 1013.6
20260903203017 89 293 1.0 2.0 0.00 0.25 0.25 61 1013.6
20260903202017 89 203 1.0 3.0 0.00 0.25 0.25 60 1013.7
20260903201017 87 0.0 0.0 0.00 0.25 0.25 67 1013.8
20260903200017 86 0.0 1.0 0.00 0.25 0.25 66 1013.5
20260903195017 86 135 1.0 2.0 0.00 0.25 0.25 66 1013.6
20260903194017 85 158 1.0 2.0 0.00 0.25 0.25 66 1013.6
20260903193017 84 0.0 2.0 0.00 0.25 0.25 68 1013.7
20260903192017 84 0.0 2.0 0.00 0.25 0.25 69 1013.9
20260903191017 83 113 1.0 3.0 0.00 0.25 0.25 69 1013.9
20260903190018 83 180 1.0 5.0 0.00 0.25 0.25 70 1014.0
20260903185018 81 158 1.0 4.0 0.00 0.25 0.25 73 1014.0